Location: �pinet
(45.8457°N, 3.2002°E)
Time: 12:46:41
(UTC+00:00)

Daily predictions for brighter satellites

Satellite Brightness Start Highest point End
(mag) Time Altitude Azimuth Time Altitude Azimuth Time Altitude Azimuth
Cosmos 2221 2.5 19:45:26 10° N 19:49:46 70° E 19:54:04 10° SSE
RESURS DK-1 2.4 19:45:55 10° SSW 19:50:00 60° ESE 19:54:06 10° NE
ERBS 3.2 19:47:07 10° WNW 19:50:10 39° SW 19:53:12 10° SSE
COSMOS 2406 3.6 19:47:38 10° SSW 19:53:17 71° WNW 19:59:02 10° NNE
BREEZE-M DEB (TANK) 3.4 19:50:31 10° SSW 19:53:35 41° SE 20:02:11 10° ENE
Cosmos 2322 Rocket 3.8 19:50:13 10° N 19:54:28 21° NE 19:58:40 10° E
Meteor 2-13 Rocket 4.5 19:48:37 10° S 19:54:44 87° E 20:00:51 10° N
IRS-1A Rocket 4.3 19:50:20 10° SSE 19:55:51 82° ENE 20:01:23 10° NNW
Cosmos 1689 Rocket 3.5 19:54:05 10° N 19:56:42 39° WNW 19:59:17 10° SW
BREEZE-M DEB (TANK) 3.3 19:56:39 10° WNW 19:59:31 77° NNE 20:07:28 10° ESE
MOS 1 4.4 19:54:28 10° SSE 20:00:09 90° WSW 20:05:51 10° NNW
Cosmos 1538 Rocket 4.3 19:56:00 10° S 20:00:54 44° ESE 20:05:49 10° NNE
Resurs 01 Rocket 1.8 19:59:28 10° SSE 20:03:50 58° ENE 20:08:13 10° N
Cosmos 2151 3.8 20:01:51 10° SSE 20:05:36 32° E 20:09:23 10° NNE
ERS-2 2.1 20:02:29 10° NNE 20:06:07 61° ESE 20:09:43 10° S
Cosmos 44 Rocket 4.1 20:01:31 10° SW 20:06:41 63° NW 20:11:54 10° NNE
Cosmos 2098 Rocket 2.6 20:03:54 10° SSE 20:06:52 46° E 20:10:19 10° NNE
Gbstr 26 Del rocket 3.5 20:04:56 10° WNW 20:08:32 46° NNE 20:12:20 10° E
Meteor 2-3 Rocket 4.5 20:05:44 10° SSE 20:10:45 34° E 20:15:51 10° NNE
Ariane Rocket 3.3 20:13:10 10° S 20:18:14 69° WSW 20:23:18 10° NNW
SL-16 R/B 3.0 20:18:07 10° NNW 20:23:27 39° NE 20:28:03 13° ESE
Cosmos 1782 4.0 20:24:08 10° NNE 20:27:36 27° ENE 20:30:03 15° ESE
Cosmos 371 Rocket 3.3 20:23:28 10° NNW 20:28:18 88° WSW 20:32:51 11° SSE
ARIANE 5 R/B 3.6 20:26:51 14° SE 20:30:05 32° ENE 20:34:03 10° N
Cosmos 1271 Rocket 3.3 20:30:25 10° N 20:34:14 43° ENE 20:36:55 18° SE
SPOT 1/Viking Rocket 3.6 20:31:18 12° SSE 20:36:10 73° ENE 20:41:22 10° N
USA 276 2.4 20:33:04 10° WNW 20:36:12 61° NNE 20:38:32 16° E
BREEZE-M DEB (TANK) 2.4 20:34:25 10° WNW 20:37:19 82° SSW 20:43:14 14° ESE
Cosmos 1076 Rocket 3.9 20:33:41 10° SSW 20:37:59 67° W 20:42:22 10° N
Cosmos 1697 Rocket 4.5 20:34:48 10° NW 20:39:29 27° WSW 20:44:10 10° SSW
OBJECT-B 4.1 20:40:28 10° W 20:40:53 10° W 20:41:18 10° W
Cosmos 1151 Rocket 4.0 20:37:19 10° N 20:41:15 32° ENE 20:43:40 19° SE
ATLAS 5 CENTAUR R/B 4.5 20:38:35 10° NNW 20:41:28 15° NNE 20:44:35 10° NE
ATLAS 2AS CENTAUR R/B 3.9 20:36:41 10° WSW 20:44:23 53° NW 20:51:54 10° NE
Cosmos 923 Rocket 4.2 20:42:08 10° S 20:47:16 50° ESE 20:52:26 10° NNE
ATLAS 3B R/B 3.1 20:43:35 10° NW 20:50:37 64° WSW 20:56:42 16° SSE
Terra 2.8 20:47:56 18° ESE 20:50:41 32° ENE 20:54:53 10° N
SPOT 5 3.2 20:50:48 21° SE 20:53:16 43° ENE 20:57:26 10° N
USA 267 4.2 20:50:08 10° ENE 20:55:13 24° SE 20:59:02 15° SSE
Cosmos 2082 Rocket 3.5 20:50:22 10° SW 20:55:44 44° NW 21:01:09 10° NNE
Cosmos 1092 Rocket 4.0 20:49:38 10° S 20:55:52 81° E 21:02:13 10° N
Meteor 2-19 Rocket 4.4 20:49:57 10° S 20:56:01 88° W 21:02:07 10° N
Cosmos 1633 4.4 20:54:12 10° SW 20:57:26 31° WNW 21:00:42 10° N
Cosmos 2056 Rocket 4.4 20:54:08 10° N 20:59:06 37° ENE 21:02:09 20° ESE
BREEZE-M DEB (TANK) 2.8 20:59:29 10° W 21:01:56 41° NNW 21:03:12 16° ENE
ERS-1 Rocket 3.1 21:00:35 23° SE 21:03:40 59° ENE 21:08:36 10° N
Cosmos 332 Rocket 4.1 21:00:45 10° NNW 21:05:37 67° WSW 21:08:59 20° S
SL-27 R/B 4.1 21:06:23 20° E 21:06:23 20° E 21:08:39 10° NE
Cosmos 2360 Rocket 3.0 21:01:32 10° NNW 21:06:49 39° NE 21:10:08 21° ESE
Cosmos 158 Rocket 4.3 21:02:03 10° SSW 21:07:11 70° WNW 21:12:29 10° NNE
NOSS 2-1 (D) 4.3 21:08:17 22° E 21:08:17 22° E 21:10:04 10° ENE
Cosmos 2026 Rocket 4.0 21:02:30 10° S 21:08:51 82° E 21:15:10 10° N
GP-B 3.1 21:08:47 10° N 21:13:15 88° W 21:16:14 21° S
ISS -2.9 21:12:04 10° WNW 21:15:13 37° SW 21:15:56 33° S
Cosmos 2333 Rocket 3.7 21:12:29 10° N 21:17:10 26° NE 21:20:38 15° E
Spot 2 Rocket 3.6 21:14:48 21° S 21:18:16 75° WSW 21:23:24 10° NNW
Meteor 1-26 Rocket 4.5 21:13:45 10° NNW 21:19:42 72° W 21:23:54 19° S
Cosmos 1371 Rocket 4.3 21:15:24 10° NNW 21:20:44 60° ENE 21:23:22 29° SE
Cosmos 2112 Rocket 4.0 21:17:49 17° S 21:21:52 64° ESE 21:27:06 10° NNE
Cosmos 1812 2.9 21:18:11 10° N 21:21:59 53° ENE 21:23:04 39° SE
Cosmos 1680 Rocket 3.4 21:17:27 12° SSW 21:22:21 76° ESE 21:27:38 10° NNE
Cosmos 220 Rocket 4.0 21:19:50 10° NNW 21:24:10 68° ENE 21:25:50 36° SE
CZ-2C R/B 4.5 21:20:39 10° N 21:25:03 51° WNW 21:29:22 10° SW
Okean 3 Rocket 3.5 21:24:58 26° S 21:27:26 81° E 21:31:58 10° N
Cosmos 1980 Rocket 4.2 21:23:33 10° NW 21:27:42 21° W 21:31:51 10° SSW
USA 234 4.3 21:24:03 10° E 21:30:08 42° NNE 21:36:11 10° NW
Cosmos 2322 Rocket 2.2 21:33:31 10° NNW 21:39:10 78° WSW 21:41:46 33° SSE
Resurs 01 Rocket 4.2 21:38:03 10° SW 21:40:41 15° W 21:43:21 10° NW
Cosmos 1408 Rocket 3.6 21:40:12 44° SSE 21:41:19 59° E 21:45:35 10° NNE
Cosmos 1743 Rocket 4.4 21:42:22 33° ESE 21:42:46 33° E 21:46:46 10° NNE
Meteor 2-14 Rocket 4.4 21:43:59 24° S 21:47:56 89° ESE 21:54:07 10° N
Cosmos 2084 3.2 21:48:52 26° SW 21:51:07 86° SE 21:55:18 10° NE
Cosmos 1553 Rocket 4.0 21:46:20 10° NNW 21:52:25 75° W 21:55:36 30° S
CZ-4B DEB 4.2 21:53:29 82° WNW 21:53:29 82° WNW 21:56:36 10° NNW
Gbstr 26 Del rocket 3.2 21:51:40 10° WNW 21:55:19 44° SW 21:55:26 44° SSW
Cosmos 2266 Rocket 4.1 21:53:29 36° SSE 21:55:53 60° E 22:02:00 10° NNE
Cosmos 1862 3.4 21:57:03 46° SSW 21:58:07 73° W 22:02:07 10° N
Cosmos 2219 Rocket 3.0 21:55:27 10° NNW 22:00:46 41° NE 22:02:58 29° ESE
Cosmos 1624 Rocket 4.0 21:56:02 10° NNW 22:01:14 71° WSW 22:02:57 42° S
NOSS 2-1 (E) 2.9 22:05:22 76° NNW 22:05:22 76° NNW 22:08:42 10° NE
Cosmos 2228 Rocket 3.6 22:01:23 10° N 22:05:35 42° ENE 22:06:05 40° E
Cosmos 1515 Rocket 3.5 22:01:19 10° N 22:05:47 79° W 22:06:43 55° S
H-2A R/B 3.4 22:02:13 10° NNE 22:06:26 88° E 22:07:14 58° SSW
ARIANE 5 R/B 4.2 22:04:24 19° SW 22:06:31 28° W 22:10:23 10° NW
SL-16 R/B 3.2 22:02:21 10° NW 22:07:29 36° WSW 22:09:55 25° SSW
NOSS 3-1 (C) 4.2 22:02:25 10° NW 22:09:52 72° NE 22:14:30 30° SE
COSMOS 2455 3.1 22:09:10 42° SE 22:10:13 47° ESE 22:15:57 10° NE
Cosmos 2333 4.3 22:04:51 10° NNW 22:10:27 67° ENE 22:12:13 43° SE
USA 276 4.3 22:09:29 10° W 22:10:46 19° W 22:10:46 19° W
Cosmos 1420 Rocket 4.0 22:06:54 10° NNW 22:12:16 85° WSW 22:13:43 50° SSE
Cosmos 883 Rocket 4.5 22:08:33 10° N 22:14:47 73° E 22:16:57 43° SSE
COSMOS 2428 3.4 22:10:04 10° NNW 22:15:31 44° NE 22:17:35 32° ESE
Cosmos 1655 Rocket 4.0 22:12:44 34° S 22:15:44 88° W 22:22:11 10° N
Spot 4 4.2 22:21:45 44° ESE 22:22:35 50° ENE 22:27:14 10° N
S3M 4.2 22:16:22 10° NNW 22:22:42 67° W 22:25:25 36° SSW
USA 229 DEB 4.3 22:16:50 10° NW 22:24:01 59° NE 22:28:16 27° ESE
USA 229 4.3 22:16:55 10° NW 22:24:06 58° NE 22:28:23 27° ESE
ATLAS 5 CENTAUR R/B 3.2 22:22:16 10° NNW 22:27:25 42° NE 22:30:39 24° E
Cosmos 1174 4.5 22:24:30 10° NW 22:26:29 38° NW 22:26:29 38° NW
Terra 3.1 22:26:49 26° SW 22:28:23 32° W 22:32:39 10° NNW
COSMOS 2487 3.8 22:31:49 31° NE 22:31:49 31° NE 22:33:48 10° NNE
Cosmos 1452 Rocket 3.5 22:26:31 10° NNW 22:31:48 74° ENE 22:32:49 57° SE
Cosmos 1707 Rocket 4.4 22:28:10 10° N 22:32:12 36° ENE 22:32:18 36° ENE
ALOS 2 3.5 22:33:57 35° E 22:34:19 36° ENE 22:38:20 10° N
USA 267 3.1 22:32:17 10° NE 22:38:52 81° SE 22:45:25 10° SW
SL-27 R/B 4.2 22:39:50 25° W 22:40:49 29° WNW 22:44:00 10° N
Meteor 1-27 Rocket 3.8 22:37:11 10° NNW 22:42:48 68° W 22:44:14 49° SSW
NOSS 3-1 (A) 4.2 22:37:07 10° NW 22:44:33 73° NE 22:48:48 33° SE
Cosmos 1805 Rocket 3.4 22:49:13 84° SW 22:49:19 85° W 22:53:47 10° N
Cosmos 2360 Rocket 3.1 22:45:40 10° NW 22:50:45 36° WSW 22:51:53 33° SW
IRIDIUM 104 4.5 22:46:08 10° N 22:51:19 66° W 22:52:18 54° SW
Meteor 1-20 Rocket 4.1 22:54:51 62° S 22:55:48 80° E 23:01:30 10° NNE
Cosmos 1110 Rocket 4.1 22:52:32 10° NNW 22:57:51 66° ENE 22:58:40 57° ESE
Cosmos 2333 Rocket 2.3 22:56:17 10° NNW 23:01:51 60° WSW 23:02:38 55° SW
Cosmos 1331 Rocket 4.1 22:58:03 10° NNW 23:03:17 65° ENE 23:03:58 59° ESE
Cosmos 1244 Rocket 4.4 23:03:47 57° SSE 23:05:04 76° E 23:11:16 10° NNE
Cosmos 972 Rocket 4.4 23:07:27 42° WSW 23:08:58 57° WNW 23:13:56 10° N
COBE Rocket 4.2 23:09:07 48° WSW 23:09:18 48° W 23:13:51 10° NNW
Cosmos 2322 4.0 23:06:30 10° NW 23:12:04 53° WSW 23:12:44 50° SW
USA 234 3.2 23:10:02 39° ESE 23:12:43 87° NE 23:19:19 10° NW
NOSS 0 Rocket 4.0 23:08:10 10° NNW 23:14:25 72° ENE 23:16:01 51° SE
Cosmos 2297 Rocket 3.1 23:17:11 34° E 23:17:11 34° E 23:21:59 10° NE
Lacrosse 5 3.3 23:21:59 26° E 23:21:59 26° E 23:24:37 10° ENE
Cosmos 2322 Rocket 4.5 23:20:35 10° WNW 23:22:12 11° W 23:23:35 10° WSW
Cosmos 2237 Rocket 2.7 23:17:00 10° NNW 23:22:36 54° ENE 23:24:02 43° ESE
Cosmos 2084 Rocket 4.2 23:19:47 10° NNW 23:23:51 46° NE 23:24:07 45° ENE
Cosmos 1500 4.0 23:26:57 50° NNE 23:26:57 50° NNE 23:29:53 10° N
Meteor 1-18 Rocket 4.1 23:20:12 10° N 23:26:05 89° ENE 23:26:57 67° SSE
Cosmos 1470 Rocket 4.2 23:29:03 47° ENE 23:29:03 47° ENE 23:32:37 10° NNE
Cosmos 2227 Rocket 3.2 23:28:53 31° E 23:28:53 31° E 23:33:35 10° NE
Sich 1 3.9 23:28:46 42° W 23:28:54 42° WNW 23:33:03 10° N
Cosmos 2285 Rocket 4.4 23:25:34 10° NNW 23:31:32 46° WSW 23:32:33 43° SW
Okean 1 4.0 23:28:33 10° NNW 23:31:46 49° NW 23:31:46 49° NW
Cosmos 1633 Rocket 3.2 23:33:06 72° NNW 23:33:06 72° NNW 23:37:06 10° N
Cosmos 494 Rocket 4.2 23:33:16 55° WSW 23:34:01 62° WNW 23:39:08 10° NNE
Cosmos 1666 Rocket 3.9 23:37:07 59° WNW 23:37:07 59° WNW 23:41:21 10° N
Cosmos 2219 Rocket 3.1 23:39:38 10° NW 23:44:35 33° WSW 23:44:40 33° WSW
SL-08 R/B 4.5 23:45:17 56° SW 23:46:36 74° W 23:52:47 10° N
SL-16 R/B 3.5 23:44:38 10° NNW 23:49:47 34° NE 23:52:42 21° ESE
Cosmos 1269 Rocket 4.0 23:50:05 69° ESE 23:50:10 69° ESE 23:55:26 10° NNE
PSLV R/B 4.1 23:47:42 10° NNE 23:52:12 57° E 23:52:12 57° E
Resurs 1-4 Rocket 4.3 23:52:03 10° ENE 23:54:06 12° E 23:55:13 11° E
